Theta_e
343 343 346 347 348 347 348 347 346 345 344 344 343 341 340 342 340 338 339 346 347 346 346 344 342 341 341 343 342 343 342 343 343 344 344 344 344 342 343 343 342 344 344 343 343 343 343 342 342 344 345 345 346 347 346 346 346 346 346 347 347 347 347 346 346 346 346 345 346 346 346 346 346 347 346 346 345 345 343 344 342 339 340 342 344
342 344 345 349 347 348 347 347 346 346 343 341 341 341 342 341 341 340 342 346 345 346 346 345 342 340 340 340 342 343 343 342 343 342 343 343 342 340 339 342 341 341 341 342 342 342 342 344 343 342 344 345 344 345 345 345 346 345 345 346 345 346 346 346 346 346 346 345 345 344 344 345 345 346 346 345 345 344 343 343 343 340 340 343 343
345 344 345 348 347 347 347 347 346 343 343 342 342 341 340 341 341 340 341 345 346 346 345 343 342 340 344 343 344 343 343 343 346 347 345 343 341 341 342 342 342 341 343 342 342 341 340 340 342 343 343 342 343 344 344 345 344 344 345 344 344 344 345 345 346 345 345 345 345 344 344 344 343 344 345 345 345 344 342 342 342 341 339 343 342
343 343 345 348 346 347 347 346 344 343 342 342 341 340 340 341 340 340 346 346 346 346 343 341 340 340 342 342 341 341 342 346 346 346 345 344 341 339 338 338 339 338 339 340 341 341 340 340 339 339 341 341 341 342 342 343 343 344 344 344 344 344 344 344 345 345 346 344 342 340 340 340 340 343 344 345 345 343 340 341 342 342 341 342 342
343 343 345 347 348 348 347 345 345 344 343 342 342 341 340 341 341 341 345 346 346 345 342 341 340 340 340 340 339 341 341 344 346 345 343 340 342 342 342 342 341 340 340 340 340 340 340 339 339 339 337 338 339 339 340 341 342 342 343 343 343 343 343 344 344 343 343 342 341 339 338 339 339 342 345 344 344 341 340 341 340 341 339 341 341
343 343 344 346 347 348 346 346 345 343 341 341 342 342 341 341 341 341 347 346 346 345 342 341 340 339 339 340 340 341 341 341 344 345 344 344 343 344 344 344 344 343 341 341 340 341 341 340 339 340 339 338 337 337 339 339 341 341 342 342 342 342 342 343 343 342 341 340 340 339 338 338 339 338 341 342 344 341 341 340 340 341 340 340 340
342 343 343 345 346 346 345 346 345 344 343 343 344 342 340 340 340 341 346 346 347 346 344 342 341 340 339 341 340 340 341 341 342 343 343 342 342 342 342 342 342 341 341 342 342 341 341 341 341 340 340 339 339 339 339 339 339 340 341 342 342 342 342 343 342 341 340 338 338 338 337 338 337 338 341 340 342 342 340 340 341 341 341 340 339
343 343 344 345 347 346 345 346 345 344 343 342 342 342 342 341 340 340 344 347 346 346 345 342 341 339 340 341 339 339 338 339 340 341 341 343 341 340 339 338 338 336 336 339 339 337 338 338 338 340 340 340 339 340 340 340 340 341 341 341 341 340 341 343 340 339 339 337 337 337 337 337 337 337 340 340 343 342 340 341 340 340 339 338 336
341 342 343 346 347 344 345 346 346 345 344 342 343 344 342 341 340 340 346 346 345 345 345 343 342 340 338 339 337 339 340 340 339 338 341 342 342 340 340 338 337 338 338 338 339 341 341 340 340 339 339 340 339 340 340 340 340 340 340 341 340 340 341 340 339 337 336 336 336 336 336 336 336 337 340 341 341 340 339 338 338 339 337 335 335
342 343 345 347 349 342 345 345 345 344 344 345 344 344 342 341 340 340 346 346 346 345 345 343 342 340 340 338 338 337 338 337 338 341 342 342 343 343 342 341 340 342 343 343 342 341 341 340 340 341 341 341 339 339 339 340 340 340 340 340 340 339 341 339 337 335 335 335 336 335 336 338 336 336 337 340 340 339 336 334 335 335 334 334 334
340 343 346 346 349 342 346 346 346 346 345 344 344 342 342 341 341 341 342 345 345 345 344 342 341 341 339 338 337 337 338 337 339 342 343 344 343 342 341 340 341 341 341 341 341 341 341 341 340 340 341 340 339 339 339 339 339 339 339 339 339 340 342 338 335 334 334 334 335 335 337 338 335 336 337 338 339 338 336 336 335 335 333 334 334
340 343 346 347 346 341 346 346 345 345 345 343 343 344 343 342 341 341 341 345 345 345 344 342 340 340 339 337 336 337 336 336 337 339 342 342 341 339 339 340 340 340 339 339 340 340 340 340 339 340 340 339 339 338 339 338 339 338 338 338 338 339 338 336 334 335 335 334 334 335 335 334 336 337 339 338 338 337 335 335 335 335 333 332 332
340 343 345 348 348 341 344 346 345 346 345 344 343 343 343 342 342 341 340 344 344 343 342 341 340 339 338 336 336 336 336 337 338 338 338 338 338 338 338 339 339 339 339 339 339 339 339 339 339 339 339 339 339 338 338 338 338 338 338 338 338 339 335 334 335 335 334 334 334 334 335 334 334 336 337 337 337 335 335 334 333 333 333 332 331
341 343 346 346 347 346 340 343 344 346 345 344 343 342 342 342 342 341 340 339 340 341 342 342 339 338 338 336 336 336 336 336 336 337 337 337 336 338 338 339 339 339 338 338 338 338 338 338 339 339 338 338 338 338 337 337 337 337 336 336 336 337 333 333 334 334 334 333 333 333 333 333 333 335 335 335 334 333 332 331 331 331 330 330 329
340 344 345 345 346 347 341 339 343 343 345 345 344 344 342 342 342 341 340 339 340 343 343 343 340 337 337 336 336 336 336 336 335 336 336 337 336 338 337 339 338 338 338 338 337 337 337 337 338 338 338 337 337 337 336 336 336 335 335 334 334 333 331 333 334 334 333 333 332 332 333 332 334 335 335 334 334 333 332 331 329 330 328 327 327
343 343 345 345 346 347 347 343 337 338 342 343 344 344 343 342 342 341 341 339 340 342 342 342 341 339 337 336 335 335 335 335 336 336 336 336 336 337 337 337 337 338 338 337 337 337 337 338 338 338 337 337 337 336 336 336 335 334 334 334 332 331 329 330 333 333 332 332 332 332 331 330 331 332 332 332 332 331 330 329 329 329 328 327 325
342 344 343 344 346 346 346 347 342 333 335 337 339 340 342 343 343 342 342 341 341 340 339 340 340 340 338 337 340 339 340 339 337 336 337 338 340 338 339 337 337 337 337 337 337 337 338 338 337 337 337 337 336 336 336 335 334 333 332 333 331 330 327 327 332 332 331 332 331 330 329 330 331 332 331 331 330 329 328 328 327 326 325 325 326
343 343 342 343 344 345 345 346 347 346 346 339 333 337 341 342 342 342 342 342 343 343 343 344 340 341 340 338 339 338 338 339 339 339 336 337 337 338 338 336 337 337 337 336 336 336 336 337 337 336 336 336 335 335 334 333 332 332 331 330 330 329 327 327 331 330 330 331 329 329 328 331 330 330 330 330 328 327 327 326 326 325 326 325 324
341 340 341 342 342 344 343 346 346 345 345 343 343 343 334 338 340 340 340 340 339 339 340 338 339 339 338 336 333 331 330 332 333 335 334 334 333 333 338 338 337 337 336 335 335 335 335 335 335 335 335 335 334 334 333 332 331 330 330 329 326 326 323 327 329 329 329 327 329 328 328 330 328 327 327 327 327 326 326 325 324 323 325 325 324
340 340 340 342 343 343 344 344 345 344 344 345 344 344 335 332 336 337 337 337 336 335 334 333 332 332 332 331 329 332 329 331 326 332 330 333 330 332 334 335 336 335 335 335 334 335 334 334 335 334 334 333 333 332 331 331 330 330 329 327 326 320 332 328 329 328 328 326 327 326 328 329 328 328 327 327 326 325 325 324 326 327 325 325 324
338 340 341 341 344 343 343 343 344 344 345 344 345 344 343 331 332 328 331 333 333 332 329 324 323 323 326 324 327 333 334 333 335 332 326 334 324 326 332 336 335 334 334 334 334 333 333 334 333 334 332 330 328 327 328 329 329 329 326 326 320 334 329 329 328 327 326 326 325 325 329 329 327 328 327 326 326 325 324 328 325 323 323 323 322
336 338 340 341 341 342 342 342 344 344 345 344 345 344 343 337 341 341 341 335 329 326 333 337 335 337 325 331 336 333 333 333 333 334 332 333 332 325 329 334 334 334 334 332 332 332 332 332 332 331 330 329 326 331 328 323 324 325 324 320 332 329 330 328 328 327 326 325 323 326 330 327 326 326 326 326 325 324 323 322 326 324 323 321 320
334 336 338 339 341 341 341 341 342 344 345 344 344 345 342 342 342 340 340 332 337 337 337 337 337 337 336 336 334 332 333 334 335 333 334 323 329 324 327 329 331 331 333 332 331 331 331 331 330 330 329 327 333 331 331 331 330 320 320 330 330 328 328 329 328 327 326 324 325 328 328 326 325 326 327 326 324 322 321 325 323 322 321 321 320
333 335 337 339 339 340 341 341 342 343 343 342 343 344 343 342 342 340 340 337 338 337 338 337 338 337 336 336 333 333 333 334 327 327 330 333 329 322 323 325 327 327 327 329 328 327 327 326 326 326 327 329 331 329 330 330 329 330 330 328 329 329 329 329 329 328 326 326 327 325 329 325 326 326 325 324 324 322 322 324 323 320 321 322 320
334 335 336 337 338 339 340 341 342 343 343 341 342 342 342 341 342 340 339 338 337 336 336 336 337 338 337 334 335 334 334 334 333 332 332 332 331 331 331 331 331 331 325 330 328 329 327 328 327 325 329 330 329 329 329 328 329 329 328 328 328 328 328 328 328 328 327 326 327 324 326 327 325 325 325 324 323 321 322 323 320 320 321 319 318
335 333 334 336 338 339 340 340 341 342 342 341 340 340 342 340 340 340 339 338 338 336 335 335 335 337 335 335 335 333 333 331 330 331 332 332 331 329 329 330 329 330 330 329 327 327 328 328 328 328 328 328 329 329 328 328 328 328 327 328 327 327 329 328 328 328 327 326 325 322 325 326 325 325 325 323 322 321 321 321 320 320 319 318 318
334 334 335 336 338 339 340 340 340 340 341 341 340 341 340 340 340 340 340 338 337 336 334 335 335 335 335 336 333 332 331 331 331 331 332 331 331 330 330 330 329 329 328 328 328 328 327 327 327 327 327 327 327 328 328 328 328 327 328 327 328 327 328 328 328 328 328 325 322 320 324 327 324 323 324 324 323 322 321 320 320 320 319 318 317
334 334 334 336 337 338 340 340 340 340 340 341 340 339 339 340 340 340 339 336 337 336 335 334 336 334 335 334 331 333 331 331 331 331 331 331 330 331 330 329 328 329 328 329 327 326 326 326 327 327 326 327 326 327 327 327 327 328 327 327 327 327 327 327 327 328 327 325 324 321 323 325 327 324 323 322 322 320 319 319 319 319 320 318 318
333 334 335 335 337 339 340 339 339 339 340 340 339 339 339 339 340 340 339 335 337 336 336 336 334 334 334 334 332 332 331 332 331 330 330 330 330 330 330 329 329 329 328 327 327 326 325 325 325 325 326 325 326 326 326 326 326 326 326 327 326 326 327 327 327 327 327 325 323 321 320 323 326 326 324 323 322 322 322 321 320 320 321 319 317
334 334 334 335 337 338 338 339 338 338 339 339 339 339 339 338 338 339 340 338 337 337 337 335 335 334 333 334 333 333 332 331 331 331 330 329 330 331 329 329 328 328 327 325 325 325 324 324 325 325 325 325 324 325 325 325 325 325 325 326 326 326 326 326 326 327 326 326 325 322 316 320 324 326 324 322 323 321 320 320 320 317 320 318 318
334 334 334 335 336 337 337 338 339 339 340 339 339 338 339 338 338 339 339 338 337 337 337 336 335 334 333 334 334 333 332 332 332 331 331 330 330 329 328 328 327 327 326 326 325 325 325 324 324 324 324 324 323 324 323 324 324 324 324 325 326 326 325 326 326 326 325 325 324 322 322 317 322 325 326 324 323 321 322 321 323 319 318 318 318
333 333 335 336 335 336 336 337 338 339 339 338 338 338 338 338 339 339 338 339 339 336 336 336 333 334 334 334 333 333 332 332 332 332 331 330 329 329 327 327 326 326 326 325 324 324 324 325 325 325 325 324 323 323 323 323 323 323 324 324 325 324 324 324 324 325 325 325 324 323 322 321 317 320 322 326 323 322 322 321 320 322 320 319 318
334 336 335 336 335 336 335 336 338 338 338 337 338 338 338 338 338 339 339 340 339 338 336 335 335 335 335 334 333 333 332 332 332 331 330 330 329 328 327 327 326 326 325 325 325 324 323 323 323 323 323 323 322 322 323 322 322 323 323 323 323 323 324 324 323 324 324 325 324 326 322 321 321 316 316 319 324 324 322 321 321 320 320 319 318
334 336 336 335 336 337 336 336 337 337 338 337 337 338 338 338 338 338 338 339 338 338 337 336 335 335 334 334 333 332 331 331 331 332 331 329 329 329 328 326 326 326 325 324 323 323 322 321 321 320 319 320 320 320 320 319 320 322 321 323 322 322 322 321 321 322 322 321 320 319 321 321 320 320 320 317 318 321 325 322 321 320 320 319 320
334 335 335 336 336 336 337 335 336 336 337 337 336 336 338 338 338 338 337 339 339 338 337 336 336 336 334 333 333 331 331 331 331 331 330 329 328 329 329 327 326 326 323 323 322 322 321 320 320 319 320 319 320 320 319 319 319 319 320 320 319 319 317 318 318 317 316 316 315 317 317 316 321 322 320 319 314 314 320 324 322 320 320 320 320
335 336 336 336 335 336 337 336 336 335 336 336 336 335 336 338 338 333 338 339 338 338 338 337 336 335 334 333 333 333 332 331 331 330 329 328 327 327 327 327 326 323 322 321 321 320 320 320 320 320 318 317 318 318 319 318 319 318 319 316 318 316 316 316 315 314 315 314 314 314 314 314 315 316 314 319 318 316 314 317 322 322 320 320 320
335 335 335 336 335 336 336 336 335 335 334 335 336 335 335 335 336 337 338 338 339 338 338 339 337 336 335 333 334 333 332 331 330 330 329 328 327 327 327 327 325 322 321 321 320 320 319 319 319 319 319 317 317 317 317 317 317 316 316 314 314 313 314 314 313 314 314 312 313 311 310 311 310 306 309 310 311 315 313 313 318 320 320 322 320
335 335 336 335 334 336 336 335 336 336 335 335 335 335 335 334 335 336 335 336 337 337 337 338 338 337 336 335 335 334 332 333 332 331 330 329 329 328 328 327 325 322 321 320 319 320 319 319 317 318 318 317 317 316 315 315 314 314 312 311 311 310 310 310 311 309 310 311 311 310 310 308 306 307 305 305 308 309 313 315 313 314 314 318 320
333 333 334 334 335 335 335 335 335 335 335 335 336 336 335 335 335 335 334 335 336 336 335 335 337 337 336 336 336 334 333 334 333 332 331 330 329 328 328 329 324 321 321 320 319 319 319 318 317 317 317 317 316 316 315 314 311 310 309 307 306 305 306 307 306 306 307 308 309 309 308 306 304 303 303 304 304 305 306 309 313 315 315 312 319
331 332 331 333 334 334 335 335 335 335 335 334 335 334 334 333 332 333 332 333 335 334 336 335 335 335 336 336 335 335 334 333 334 333 331 330 329 328 329 329 324 321 320 319 318 318 317 316 316 316 315 315 313 311 309 307 307 307 305 304 303 302 303 304 304 304 304 305 305 306 305 305 304 302 302 302 301 302 303 306 308 312 314 313 314
328 329 330 332 333 333 333 333 335 334 333 332 332 332 331 330 331 330 330 332 332 333 334 335 334 335 337 336 335 334 335 334 333 333 331 327 329 330 330 328 324 320 319 318 319 319 318 317 316 316 315 311 310 309 308 308 305 305 304 304 304 304 302 301 301 302 302 303 304 303 303 303 303 302 302 301 301 301 302 303 305 306 309 312 311
326 327 327 329 331 332 332 333 333 333 332 332 332 332 332 331 330 330 330 332 332 332 333 335 336 337 338 337 336 335 335 334 331 332 330 330 329 329 328 327 322 319 319 319 319 316 317 316 316 313 313 310 309 308 306 306 304 304 304 305 307 307 304 302 300 301 302 302 302 302 303 303 303 303 301 300 300 299 300 300 301 302 304 308 311
321 325 327 328 329 330 331 332 332 332 332 332 332 331 332 333 332 331 331 331 332 336 335 335 336 337 337 337 336 334 333 332 333 332 331 331 331 330 327 327 325 322 318 318 317 316 315 314 314 312 308 309 309 307 306 307 306 307 307 304 304 305 308 303 304 303 303 303 302 302 302 302 303 302 301 299 298 299 299 299 300 301 302 304 306
315 320 323 325 326 328 329 330 331 331 332 332 331 333 333 333 332 331 331 331 329 334 336 336 335 337 336 336 335 334 334 333 333 333 330 332 331 329 328 327 326 323 320 317 316 314 313 313 312 311 310 305 306 306 306 307 307 308 302 302 304 303 301 306 306 305 304 304 303 302 302 302 302 302 299 298 297 297 298 298 298 299 300 301 303
312 315 319 322 324 326 328 330 330 331 331 331 331 331 331 330 330 330 330 330 331 330 331 331 332 331 332 334 335 335 335 334 334 334 330 330 330 329 328 326 324 322 320 318 315 314 312 312 311 310 309 309 307 308 306 306 307 311 309 302 299 298 300 305 308 309 305 304 304 303 303 302 302 301 299 299 299 298 298 298 298 298 299 299 300
310 312 314 319 321 324 326 328 329 329 330 330 330 329 327 327 326 325 323 323 323 324 324 325 327 328 328 330 333 334 334 334 334 333 332 329 329 328 327 326 323 322 319 318 317 316 313 311 311 311 310 310 311 310 306 305 306 308 309 310 310 307 306 307 306 303 304 306 306 304 303 302 301 301 300 299 299 298 298 298 299 298 298 298 298
309 311 312 314 317 319 322 325 326 327 328 328 329 327 326 326 325 324 324 323 322 324 326 326 326 327 330 330 332 334 335 333 332 331 330 328 328 328 327 326 323 321 319 317 316 315 314 312 312 311 310 310 311 309 308 304 303 304 307 308 308 307 305 305 303 305 303 302 300 302 301 301 300 300 300 301 300 299 300 298 297 297 298 298 298
309 310 310 311 312 315 318 321 323 323 325 326 326 325 324 324 324 324 324 323 323 323 325 325 326 326 326 327 327 328 330 334 333 331 331 329 328 328 327 325 323 322 319 317 316 317 316 315 313 313 312 311 310 309 309 307 302 303 303 304 305 306 307 303 301 301 301 297 301 302 301 301 300 298 298 299 301 299 300 300 298 298 298 298 298
310 308 308 310 311 313 316 319 320 321 323 325 324 324 323 324 324 324 322 322 323 323 325 326 325 326 325 325 326 327 328 329 329 330 332 332 328 328 327 326 324 323 320 320 318 318 317 316 313 312 311 311 310 310 310 309 306 306 303 302 303 303 305 305 303 298 296 296 298 300 303 300 297 297 297 297 298 300 300 301 300 298 298 298 298
312 312 311 311 313 314 315 317 318 321 322 323 323 323 323 322 322 323 322 322 322 322 323 323 324 324 323 324 324 324 325 326 327 328 328 327 327 327 327 326 325 325 320 321 319 318 317 314 313 312 310 309 310 309 309 310 310 308 307 305 302 302 303 303 303 301 300 299 296 299 301 302 300 300 297 297 297 298 300 301 299 298 298 298 298
312 311 312 312 314 315 315 316 318 320 321 322 321 322 322 321 321 322 322 321 322 321 321 321 322 322 321 321 322 322 324 324 325 325 326 326 325 324 324 325 325 321 319 320 319 317 317 316 314 313 311 309 309 309 309 309 309 308 307 307 305 304 304 304 303 302 301 299 298 297 300 300 300 301 304 300 299 299 299 299 299 299 298 298 297
Wind_Speed
8 10 10 8 5 6 9 11 11 11 11 11 12 11 10 11 9 9 10 13 13 12 14 13 12 12 13 15 15 15 16 15 15 16 16 17 16 16 16 17 17 17 17 17 16 16 16 16 15 16 17 18 18 19 19 19 19 20 20 20 20 20 20 20 19 18 18 19 20 20 19 19 19 19 20 20 19 17 15 16 17 15 14 17 21
10 9 9 8 7 7 9 11 12 12 11 11 11 10 10 9 8 7 8 11 11 13 13 13 13 13 13 14 15 14 14 14 15 15 15 16 16 15 15 17 17 17 17 16 17 17 18 16 17 17 17 18 18 18 18 19 20 18 19 18 17 16 16 16 17 16 17 17 19 19 20 20 20 20 21 21 20 20 17 17 18 15 13 21 22
10 10 10 9 7 8 9 11 12 12 12 11 11 10 9 9 7 5 5 12 12 13 13 13 11 12 15 15 14 14 14 14 17 18 18 18 16 16 18 17 17 17 17 17 16 17 17 17 17 17 17 17 17 17 17 18 18 18 17 17 16 15 13 11 11 15 17 19 19 18 18 21 20 20 21 22 21 20 19 20 20 19 15 22 21
11 9 10 9 5 5 10 11 11 12 11 11 10 9 9 8 7 7 14 13 13 12 13 12 11 13 15 15 15 14 14 16 15 16 17 15 15 14 14 15 16 14 16 17 17 17 17 18 18 17 17 17 17 17 17 18 17 18 17 16 14 14 12 11 9 6 8 11 12 13 11 13 15 20 21 22 22 22 20 22 22 23 22 21 23
11 10 10 10 10 8 10 11 11 11 11 11 10 9 9 8 7 9 11 13 13 13 14 12 11 13 14 13 14 14 14 15 14 15 14 14 16 15 15 15 16 15 17 17 17 17 18 18 18 18 17 16 16 16 16 17 17 17 16 15 14 13 12 10 9 11 11 10 13 13 12 13 12 19 20 21 21 19 20 21 21 21 21 22 23
10 10 10 10 10 11 9 10 11 11 11 11 10 9 9 9 8 9 15 13 12 13 14 13 12 12 13 14 14 14 14 14 15 15 16 16 16 15 16 17 17 16 16 16 17 17 17 17 17 17 17 16 16 16 16 15 16 16 15 15 15 14 12 10 8 9 13 12 13 10 12 12 12 12 21 19 21 20 21 21 21 21 21 23 22
11 9 9 10 9 10 9 10 11 11 11 10 9 9 9 8 7 9 12 13 12 10 12 13 11 11 13 14 14 14 13 13 14 14 15 15 15 15 15 16 16 16 16 17 17 16 17 16 16 16 16 16 16 16 15 15 15 16 14 14 13 13 12 9 10 8 9 10 9 10 10 12 12 9 18 17 22 21 22 21 21 22 22 21 20
9 7 9 10 9 11 10 11 11 12 12 10 9 9 8 8 8 8 9 13 11 11 9 12 12 10 13 15 13 11 13 13 14 14 13 13 14 14 14 14 14 15 14 16 16 16 16 16 15 16 16 15 16 16 16 16 16 15 14 14 13 12 11 10 12 13 13 11 10 9 10 12 11 10 17 16 21 21 21 21 20 21 21 20 17
9 9 10 10 11 12 10 9 11 12 12 10 9 8 8 8 7 6 13 15 13 11 9 12 12 11 11 12 13 13 13 12 12 12 14 15 15 15 15 14 14 15 15 15 16 16 16 16 15 15 16 15 15 16 16 16 16 14 14 13 12 11 9 7 5 11 12 10 11 10 11 12 12 11 17 20 19 19 18 17 17 20 20 18 19
9 9 9 9 11 11 9 9 11 12 12 10 9 8 8 7 7 8 13 12 12 12 10 12 12 11 11 12 12 13 12 12 12 12 13 15 15 15 14 14 14 15 15 15 15 15 15 15 15 15 16 16 15 15 15 15 15 14 14 14 13 12 9 7 11 12 10 12 13 13 12 12 12 11 17 20 21 21 20 18 15 15 14 19 20
11 10 9 10 13 10 10 10 9 10 12 11 9 8 8 7 8 8 10 12 13 11 10 12 11 11 11 12 12 13 12 11 11 13 14 14 14 15 14 14 14 14 14 15 16 15 15 15 15 15 16 16 15 15 15 15 14 14 13 13 13 12 10 11 13 10 11 12 12 11 13 15 11 10 17 20 21 20 16 17 17 17 16 18 20
10 9 9 10 13 9 9 8 9 10 11 10 9 8 8 7 7 7 9 12 12 12 10 11 11 11 11 11 12 13 12 11 10 12 12 13 13 14 14 13 13 13 15 14 14 14 14 14 14 14 15 15 15 14 14 14 13 13 13 12 12 10 9 11 11 10 11 13 13 11 12 13 11 12 19 18 19 19 18 18 18 18 17 15 16
10 9 9 11 10 8 8 8 8 9 10 10 10 9 7 7 7 7 6 11 11 11 11 11 11 11 10 10 11 12 11 11 10 9 11 12 12 12 13 13 13 13 13 13 14 14 14 14 14 14 14 14 14 14 13 14 12 12 11 10 10 9 11 12 10 10 10 11 9 12 11 10 10 16 17 17 18 18 18 18 17 16 16 16 15
10 8 9 10 9 8 7 7 7 8 9 9 10 9 8 7 7 7 7 7 9 10 11 11 11 11 10 10 11 11 10 10 11 11 10 11 11 13 12 12 12 13 13 12 12 12 12 12 12 12 12 13 13 12 12 12 11 10 10 10 10 9 7 10 11 10 10 10 10 11 10 8 10 16 16 17 16 14 14 15 16 15 15 14 14
9 9 8 10 10 10 7 6 6 7 8 8 8 8 8 7 7 7 7 6 9 12 11 10 11 10 10 9 8 10 11 11 9 10 10 11 11 12 12 12 12 13 12 12 11 11 11 12 12 11 12 12 12 12 12 12 11 10 9 9 8 9 7 8 8 9 8 8 9 10 10 10 14 15 15 16 15 15 14 14 14 14 14 14 13
8 7 8 9 10 10 9 7 6 7 7 7 7 7 7 8 7 7 7 6 10 11 11 11 10 10 9 9 9 8 10 9 11 11 9 9 10 11 11 11 12 12 11 11 11 11 11 12 12 11 11 12 12 11 11 11 11 10 9 9 10 11 10 6 7 7 7 8 8 9 9 8 12 13 12 13 13 13 13 12 13 13 14 14 13
9 7 7 7 10 10 9 10 8 8 7 7 7 6 7 6 7 8 6 5 7 8 10 10 11 10 10 9 8 9 11 10 10 10 9 11 9 8 9 10 10 11 11 11 11 11 11 11 11 11 11 11 11 11 11 11 10 9 9 8 9 9 8 8 6 6 6 7 5 6 7 7 11 13 13 13 13 13 13 13 13 12 11 12 14
9 8 7 7 8 9 9 9 10 9 9 7 7 7 7 6 6 6 6 5 6 8 8 7 10 9 8 7 8 11 11 10 9 10 10 10 10 9 8 10 11 11 11 11 11 11 11 11 11 11 11 11 10 10 10 10 9 9 7 8 7 9 8 7 6 6 7 5 5 7 7 7 11 11 12 13 12 12 12 11 11 12 13 12 10
8 8 8 7 8 8 9 9 10 9 10 8 7 7 7 7 6 6 6 6 7 8 8 9 10 10 8 8 9 10 11 10 9 9 9 9 9 9 9 10 11 11 11 10 10 10 10 10 10 10 10 10 10 9 9 9 8 8 7 6 6 5 6 2 4 4 4 7 7 7 7 10 11 12 11 11 12 12 12 13 11 10 13 14 12
8 8 8 7 7 8 8 8 9 9 8 8 8 9 8 8 7 6 6 7 7 8 9 9 9 9 9 8 9 9 9 8 9 8 8 7 7 8 9 9 10 10 10 9 9 9 9 9 9 9 9 9 9 10 8 8 7 6 5 4 3 5 1 4 4 7 6 5 5 6 6 8 11 11 12 11 12 12 10 10 14 16 13 11 12
7 9 8 8 8 8 9 7 8 9 8 7 7 8 8 9 6 6 7 7 7 7 9 9 8 8 8 8 7 6 7 7 6 7 7 5 7 8 6 7 9 9 9 9 8 8 8 8 8 8 8 9 10 9 9 7 6 5 3 4 7 4 4 4 4 5 5 4 5 4 6 7 11 10 10 10 10 10 8 15 11 10 11 11 9
9 8 9 9 8 8 8 8 7 9 8 7 6 7 7 8 7 6 6 5 6 7 6 6 8 7 8 8 6 5 6 6 6 7 6 7 7 9 9 10 9 7 8 8 8 7 6 6 6 7 9 9 9 5 4 5 5 5 4 7 6 3 2 4 4 5 5 4 6 5 1 9 10 9 9 9 9 10 10 9 14 10 10 10 8
9 9 9 10 9 8 9 9 8 8 8 7 6 7 9 7 8 7 6 6 7 6 6 6 6 7 7 6 4 4 5 5 5 4 6 9 9 9 9 8 8 9 9 8 6 6 6 5 6 6 4 5 5 4 4 3 2 2 5 5 1 2 4 3 3 3 4 6 5 3 9 9 6 9 11 11 10 9 6 14 11 9 9 9 8
11 9 9 9 10 9 9 9 9 8 7 7 6 7 7 7 7 7 6 6 6 6 6 6 5 6 6 5 3 4 4 5 9 11 9 7 6 9 10 10 10 11 12 8 9 9 7 3 1 2 4 4 2 2 4 3 3 3 3 1 1 2 2 2 2 3 4 4 6 0 3 6 9 12 9 8 8 8 6 12 11 5 10 12 8
9 9 9 9 11 10 9 9 9 8 8 6 6 6 7 5 6 6 6 5 6 6 5 5 5 5 5 4 3 4 3 4 6 5 5 6 6 6 6 5 5 5 6 4 3 4 4 4 3 5 3 1 0 1 2 2 4 3 2 1 2 2 2 2 2 2 3 3 5 5 7 7 10 8 8 8 8 7 7 12 6 8 10 6 7
9 9 10 10 11 10 10 9 10 9 8 7 7 6 6 6 6 6 6 5 5 5 5 5 5 5 5 3 4 4 4 4 6 6 6 5 6 5 5 5 5 5 6 3 3 4 3 4 4 3 2 2 1 1 2 1 1 2 2 0 1 2 1 2 2 3 3 4 5 5 5 7 8 7 8 8 6 5 6 9 6 8 7 7 5
9 9 10 9 10 11 10 10 9 9 10 9 7 6 7 6 6 6 6 6 5 6 5 5 5 6 5 4 4 5 4 5 5 5 5 5 5 5 5 4 5 5 5 3 3 3 3 4 3 3 2 1 1 0 1 3 2 2 1 1 2 2 2 2 2 4 3 4 5 6 7 6 7 6 9 9 9 8 6 6 6 7 6 7 4
9 10 10 9 9 11 11 11 10 10 9 9 8 8 7 8 7 6 6 6 6 6 6 5 5 6 6 5 5 4 5 4 5 5 5 4 5 4 4 4 4 4 4 3 4 4 4 3 3 3 2 2 2 2 2 2 2 2 2 2 2 2 2 2 3 3 3 4 5 4 5 6 4 8 8 6 5 5 4 6 5 5 8 5 7
10 11 10 10 11 10 11 12 11 11 10 9 9 8 8 7 7 8 8 6 7 6 6 6 6 6 7 6 5 5 5 4 5 5 5 4 4 4 4 4 4 4 4 4 4 4 4 4 3 4 4 3 3 3 2 3 3 3 3 3 3 4 2 2 2 3 3 3 5 4 3 6 6 8 10 9 8 9 11 7 6 6 10 7 5
10 10 10 10 11 12 13 13 12 11 10 9 9 8 8 8 8 8 8 7 8 7 7 6 6 6 6 7 6 5 4 4 4 5 5 5 4 5 4 4 5 4 5 4 4 4 4 4 4 4 4 3 3 3 3 3 4 4 4 4 4 4 3 3 3 3 3 3 4 5 4 4 5 8 10 7 9 7 4 5 7 3 8 5 6
10 11 10 10 9 11 12 12 12 10 9 10 9 10 9 9 9 8 8 8 8 8 7 7 6 7 7 7 8 6 6 6 6 5 5 5 5 5 5 5 5 5 5 4 4 4 4 4 4 4 4 4 4 3 4 4 4 4 4 5 5 4 4 4 4 4 4 4 3 5 5 6 7 10 10 10 9 5 11 8 13 9 5 5 7
11 11 10 9 11 12 13 13 13 11 11 10 7 9 9 9 8 8 8 8 8 8 8 7 7 7 7 5 7 8 6 6 6 6 6 5 5 5 5 5 5 5 5 5 4 5 4 4 4 4 4 4 4 3 5 4 5 5 5 6 6 6 5 5 5 5 5 4 4 4 6 5 6 7 7 6 10 10 11 8 8 13 11 8 8
9 10 11 11 12 12 12 13 13 13 13 13 11 8 8 9 9 9 8 7 8 7 6 7 8 8 7 6 7 8 8 7 6 7 7 6 5 5 5 5 5 5 5 5 5 5 4 4 4 3 4 4 4 4 4 5 5 5 5 6 5 5 5 6 6 6 6 4 3 2 5 5 6 7 7 7 9 6 10 11 11 9 9 9 6
9 8 11 12 10 8 9 10 12 13 13 12 12 11 10 9 9 9 8 9 8 8 9 8 7 6 7 7 7 9 8 8 8 7 8 7 6 6 6 6 5 5 5 5 5 5 5 5 5 5 6 6 5 5 5 6 5 5 5 6 5 5 5 4 4 4 3 3 1 1 1 5 7 6 5 8 8 9 10 14 13 12 11 9 10
9 9 12 12 12 10 9 9 11 13 11 13 12 12 11 10 9 9 10 9 8 9 8 8 8 6 5 7 9 9 9 9 8 7 8 7 6 7 7 6 6 5 5 5 5 5 6 6 5 5 5 5 5 5 6 5 6 6 5 4 5 4 3 4 3 2 2 1 1 1 2 2 1 2 5 5 6 9 11 9 12 12 14 13 11
12 10 10 11 12 12 11 10 12 14 13 13 12 11 11 10 9 9 9 9 9 9 9 8 7 8 9 9 11 10 10 11 9 9 8 7 6 6 6 7 7 6 5 6 6 6 6 5 6 6 6 6 6 6 5 5 5 5 4 3 4 3 4 4 3 3 3 2 3 3 2 2 2 2 1 3 5 8 10 8 8 12 14 16 14
11 11 10 11 12 13 12 12 12 13 13 13 13 11 10 10 10 10 11 10 9 10 10 9 9 10 9 9 10 9 9 10 10 9 8 7 7 7 7 7 7 7 6 6 6 6 6 6 6 6 6 5 6 6 5 5 4 4 3 3 2 2 3 3 3 4 3 3 4 2 2 1 2 3 3 4 3 3 9 12 9 12 12 16 15
11 11 10 10 11 11 11 11 10 11 11 11 12 11 11 10 10 10 10 10 11 10 10 10 10 10 10 10 10 10 10 11 11 10 9 9 8 7 7 8 7 7 6 7 7 7 7 7 7 6 7 6 5 6 6 5 4 4 3 2 2 2 2 2 2 2 2 3 4 3 3 1 1 2 3 4 4 4 3 5 9 12 13 12 13
9 12 11 10 10 10 10 11 11 11 11 11 10 10 10 9 9 9 10 11 10 11 10 10 10 10 11 10 9 9 8 11 11 10 9 9 9 8 7 8 6 7 7 7 6 7 7 7 7 6 6 6 5 5 4 3 3 2 2 2 1 2 2 2 2 3 3 3 4 3 1 3 2 2 3 3 4 3 4 4 3 5 7 11 12
10 10 12 11 11 11 10 10 11 11 10 10 10 10 10 9 10 10 10 9 10 9 9 10 10 10 10 10 11 10 10 10 12 11 10 9 9 8 8 8 7 6 7 7 8 8 9 8 8 8 6 5 1 2 2 2 2 0 1 2 2 2 3 3 3 3 3 4 4 4 5 3 3 2 3 3 3 4 4 5 4 4 5 8 10
11 11 12 12 12 12 11 12 11 11 10 9 9 9 10 10 10 11 10 9 10 10 10 10 10 8 9 10 10 11 12 10 9 10 12 9 8 9 11 8 6 6 7 8 8 8 7 7 6 6 7 6 5 3 3 3 2 2 2 4 5 5 5 4 5 5 6 5 5 5 4 3 3 4 3 2 3 4 5 4 4 5 5 6 9
11 12 13 13 13 13 12 11 9 11 11 10 9 9 9 9 8 9 9 8 8 8 8 6 6 6 8 10 9 10 10 8 8 10 9 8 8 8 8 11 7 7 8 7 7 7 7 7 6 5 4 6 5 6 4 5 3 7 4 3 4 5 7 7 8 9 8 6 5 5 4 6 6 5 3 4 4 5 6 4 5 6 6 6 7
10 11 12 12 12 12 12 11 10 10 10 10 9 9 8 8 7 6 7 7 8 9 10 10 8 7 7 10 9 9 8 8 8 8 7 9 10 11 11 8 8 8 7 8 8 8 7 7 8 6 4 4 4 4 7 9 4 3 1 3 6 4 3 4 7 11 10 9 7 7 8 7 10 5 3 4 4 7 6 6 6 6 7 7 6
7 8 10 11 10 10 11 12 10 10 9 10 9 8 7 7 8 8 7 8 3 3 4 3 7 10 10 9 8 8 8 8 8 8 8 8 10 12 9 7 8 8 8 7 8 8 7 6 6 7 6 4 5 6 8 8 7 5 3 6 1 1 7 7 7 8 11 11 10 10 7 8 6 6 4 8 6 5 8 6 8 8 8 7 7
7 7 8 9 8 11 11 11 10 10 9 9 10 8 6 6 7 7 7 7 1 3 4 5 5 7 7 7 8 7 9 11 11 11 8 9 10 8 6 6 5 6 6 6 7 9 7 6 6 7 8 9 7 6 7 9 10 9 6 3 1 2 7 6 5 5 7 7 10 9 9 11 10 9 7 9 7 8 8 8 9 8 9 9 8
7 7 7 8 8 8 9 9 8 8 8 9 9 8 7 7 7 7 8 9 10 9 10 9 7 8 10 9 8 8 8 9 8 7 8 8 7 8 8 6 6 5 6 8 7 7 8 7 9 8 10 11 9 6 5 7 9 10 10 7 6 6 3 1 2 4 4 4 4 7 7 8 9 10 9 6 6 7 8 10 10 10 9 9 8
6 6 7 7 8 7 8 9 8 7 8 8 9 8 9 8 10 9 8 8 8 7 7 7 9 8 8 10 9 8 7 8 8 8 8 8 8 7 8 7 7 5 6 6 7 9 8 9 8 10 10 9 9 9 8 6 4 7 9 10 11 4 1 2 7 5 8 1 2 3 6 6 7 9 11 12 10 11 10 10 11 11 10 9 8
6 6 5 6 8 8 8 9 7 7 7 8 9 9 8 8 9 9 8 8 8 7 5 6 6 6 6 8 7 7 7 8 7 7 8 7 8 8 7 7 7 7 7 8 8 9 8 7 9 10 9 8 9 11 9 7 7 6 8 10 11 11 6 4 3 8 7 9 9 4 6 6 6 7 6 10 12 13 12 10 11 11 11 10 9
5 6 6 6 7 7 8 8 8 8 7 9 8 9 7 7 8 8 8 7 8 7 6 5 5 6 7 7 7 6 4 4 5 6 5 7 7 8 8 8 8 9 9 8 9 10 10 8 8 8 9 10 8 9 8 8 7 8 6 7 8 9 9 9 4 4 6 9 13 10 12 3 3 6 7 10 10 11 11 12 11 11 10 11 11
4 4 5 5 6 6 7 8 8 7 7 8 8 8 8 6 7 7 8 7 7 7 7 6 6 5 6 6 6 6 5 4 4 6 6 4 3 5 8 9 9 9 9 9 9 9 8 8 8 9 10 10 8 9 11 9 7 6 7 5 7 8 7 8 8 8 8 10 14 11 11 12 11 8 8 8 11 13 12 11 11 11 11 11 11
4 5 5 5 6 6 7 8 8 6 7 8 8 7 8 8 7 7 8 8 8 7 7 7 7 6 7 7 7 6 5 5 4 4 6 5 5 5 5 5 5 5 6 7 8 8 9 9 9 11 12 12 10 9 11 11 8 7 8 7 8 9 10 12 12 9 11 9 9 11 11 9 12 15 10 10 10 11 12 12 12 12 12 12 12
Wind_Direction
129 120 111 100 103 107 106 97 91 87 83 80 80 80 81 91 87 81 93 84 98 94 85 84 81 79 79 79 78 78 76 76 77 77 77 76 76 74 76 74 73 71 69 70 71 72 71 69 70 69 69 66 65 65 66 69 70 71 70 72 74 72 72 72 69 68 68 70 72 72 72 73 73 74 72 68 63 60 64 71 71 71 71 69 70
134 124 120 111 105 119 109 99 94 90 87 85 83 86 92 78 77 84 74 87 95 94 87 84 87 88 87 82 81 78 78 80 81 81 79 80 75 75 75 72 71 69 70 70 68 69 71 70 70 71 70 66 67 69 68 68 67 64 65 64 66 66 68 74 80 81 78 73 71 73 74 74 74 75 76 73 68 64 62 67 71 76 73 72 71
128 128 119 107 102 116 108 104 100 97 92 86 83 79 79 84 85 81 64 80 95 98 93 91 95 90 89 84 84 84 83 83 80 79 78 77 73 69 73 75 71 72 73 72 75 74 73 72 71 69 69 70 68 70 69 68 65 65 65 65 64 63 62 64 70 88 91 92 90 81 74 73 74 77 78 78 74 71 71 73 73 73 76 75 72
132 126 121 108 109 128 112 105 100 97 94 88 85 88 90 92 87 83 85 92 88 91 93 94 91 89 83 82 84 82 82 81 84 84 84 84 84 82 81 80 78 76 81 77 75 73 74 73 73 75 73 73 74 74 74 70 68 69 67 64 60 55 52 52 54 63 99 105 95 83 75 76 75 77 78 77 75 74 74 75 76 76 74 76 75
132 132 128 134 135 126 111 111 107 101 97 90 88 90 89 85 78 77 96 103 101 95 94 94 93 94 97 94 89 87 80 87 93 89 85 79 81 80 75 73 78 76 74 78 77 77 76 78 77 75 76 75 74 75 76 74 71 70 65 62 55 47 40 35 48 68 67 59 71 77 80 75 70 73 79 79 78 75 75 76 76 77 78 74 74
136 134 140 140 133 123 116 115 110 106 101 101 94 89 97 98 82 69 70 90 95 99 96 94 90 85 90 90 88 82 83 81 79 83 80 77 77 79 77 78 79 79 78 77 78 76 75 76 77 77 76 77 76 77 76 78 76 75 63 59 54 50 42 33 26 51 72 70 74 79 78 79 76 72 78 79 80 78 78 76 73 75 73 73 72
138 139 138 134 133 125 124 120 117 114 109 105 98 93 88 78 74 84 91 88 99 97 97 99 96 91 90 90 84 85 87 88 92 88 84 81 78 74 71 73 76 78 81 83 82 81 79 78 79 80 78 76 76 77 78 80 80 74 61 57 53 51 47 37 37 53 73 77 73 79 81 75 75 78 76 74 82 80 76 76 77 73 73 73 73
141 142 139 132 133 128 127 126 123 117 112 106 103 98 90 84 78 65 93 101 101 103 95 97 96 90 89 92 89 92 87 81 78 79 83 91 86 76 73 72 75 84 81 78 79 80 80 80 78 78 78 77 77 79 79 80 79 69 64 60 51 41 26 20 54 58 63 72 78 74 79 81 76 71 78 85 81 79 79 76 76 76 77 77 77
144 146 140 131 126 123 125 129 125 119 113 109 104 98 95 85 75 73 76 84 97 99 101 100 96 93 85 89 95 86 81 80 77 76 78 69 71 76 81 87 89 82 85 88 83 81 80 80 79 78 79 78 77 78 79 80 76 63 58 48 39 30 24 36 34 79 75 71 70 76 80 83 85 83 75 74 74 74 75 76 76 77 76 75 73
145 144 137 134 130 125 129 130 125 119 114 111 104 99 100 96 81 74 85 93 99 104 107 99 96 94 95 92 88 88 88 89 88 82 75 76 78 81 80 76 71 77 81 83 87 85 82 81 80 78 78 78 78 77 77 77 71 58 50 44 39 32 20 23 68 65 78 76 72 70 66 74 77 77 78 78 75 74 73 71 74 72 81 83 76
147 143 138 130 129 125 135 130 124 119 116 116 116 108 103 101 91 81 92 97 101 99 97 95 95 94 97 99 95 89 83 86 84 91 89 87 82 82 83 83 80 77 79 81 80 81 80 78 76 76 78 78 78 78 78 77 69 61 56 47 38 31 18 41 61 68 70 73 79 80 75 69 67 72 79 80 79 76 73 75 77 75 68 76 78
148 138 138 123 125 128 128 126 124 122 121 119 118 113 108 104 98 84 92 101 102 104 99 94 96 98 100 102 99 95 94 87 83 80 89 89 84 79 79 77 77 76 74 77 80 79 80 80 81 82 80 81 81 81 81 80 73 67 58 46 37 23 28 59 69 67 64 70 70 70 70 74 81 80 77 76 75 75 75 76 76 74 72 74 76
138 145 130 128 134 117 124 126 122 126 123 122 120 120 113 106 100 92 84 101 97 100 101 98 96 98 99 100 101 98 98 100 94 84 80 80 85 84 82 82 80 81 81 78 79 79 79 79 81 84 83 81 78 79 80 81 78 70 64 63 68 57 45 55 75 76 77 76 75 73 70 76 76 75 75 75 74 71 68 69 72 77 78 76 82
137 147 145 141 132 120 115 116 127 126 125 124 125 125 123 113 108 99 90 85 103 96 94 102 102 100 99 98 100 101 100 100 95 87 83 81 85 92 90 87 86 82 79 75 73 76 80 83 85 86 82 81 81 81 83 84 77 62 42 29 14 359 70 79 79 77 77 78 76 81 80 75 76 75 77 76 72 73 80 81 78 76 77 80 78
145 147 147 138 136 142 111 114 126 125 124 126 128 128 128 124 114 107 95 96 103 99 102 102 104 102 103 104 103 104 96 86 87 91 87 84 89 83 84 83 81 76 77 76 76 79 80 83 86 84 86 86 85 86 89 85 75 60 46 30 16 19 47 78 71 74 74 73 76 78 77 79 78 77 78 77 79 80 78 79 82 83 88 89 82
139 158 153 148 146 145 152 127 128 126 126 126 129 128 131 132 127 116 109 107 111 112 114 111 109 108 106 103 102 99 94 99 100 85 79 86 86 87 91 90 84 83 84 86 87 87 89 89 90 90 89 91 90 91 85 81 75 62 43 29 24 20 9 63 75 77 77 78 81 81 83 82 83 82 80 82 83 84 83 81 82 78 77 79 82
154 165 163 154 152 157 158 161 143 128 125 127 127 127 130 131 135 128 116 95 105 116 121 123 116 118 112 100 70 55 63 80 98 100 74 55 61 81 88 92 94 91 90 92 91 88 87 90 92 92 91 91 92 87 82 78 75 64 47 27 30 22 18 46 69 65 73 75 76 85 76 75 70 78 83 89 92 91 89 85 81 88 88 79 79
161 171 170 165 167 164 162 161 153 158 151 136 127 129 128 131 129 126 111 91 84 79 77 89 118 108 91 83 74 64 67 71 79 87 79 62 52 61 85 92 92 91 90 87 89 88 89 89 88 88 90 91 91 85 79 75 69 63 48 42 31 21 34 71 72 74 72 76 82 71 82 91 94 96 94 90 88 87 87 92 90 83 82 86 86
168 179 176 179 182 170 162 161 169 169 161 164 157 138 134 128 126 123 111 92 87 93 87 100 113 113 106 93 85 83 76 78 77 80 86 88 87 66 65 92 98 95 92 92 89 90 87 86 88 88 94 97 94 84 78 74 69 64 43 52 34 25 326 5 79 93 89 68 66 79 77 80 90 88 90 90 91 89 85 82 91 95 81 79 83
182 186 185 188 190 179 172 170 174 172 175 168 157 154 137 130 127 117 105 93 92 96 101 101 109 114 114 116 112 115 104 92 97 90 82 73 54 75 89 96 103 105 102 99 97 92 95 93 94 101 96 100 89 76 71 67 68 53 50 20 321 291 22 71 61 67 73 73 89 95 108 119 109 101 94 93 92 97 104 100 87 81 85 89 88
184 188 193 189 199 189 188 172 179 173 182 169 160 152 132 129 117 96 99 97 100 103 106 110 111 120 130 130 154 160 145 126 132 120 120 90 74 76 104 110 108 102 104 98 97 96 100 104 105 105 106 94 79 64 53 50 43 47 26 302 308 285 56 72 79 76 74 92 90 105 131 93 85 90 90 91 93 98 99 95 96 89 88 88 94
183 187 192 191 194 195 195 189 183 183 178 174 162 151 146 164 154 155 154 132 118 129 146 149 148 143 139 160 174 155 157 168 137 140 132 129 96 88 89 92 91 86 89 104 98 95 97 100 109 118 121 120 133 115 93 55 34 10 330 300 288 67 88 67 74 93 101 91 95 100 315 98 97 105 108 103 102 91 86 87 93 92 90 92 101
189 188 189 192 192 191 196 196 193 189 184 175 165 151 158 171 163 165 155 177 161 178 178 167 174 162 172 188 176 159 159 160 136 100 94 69 85 86 78 74 79 83 83 82 90 95 98 108 120 135 146 180 208 125 126 141 133 294 273 267 281 51 67 86 85 91 107 101 99 101 111 112 139 87 83 82 84 94 101 87 86 86 102 112 100
188 190 185 193 192 191 192 197 194 192 188 188 176 169 170 179 172 172 165 183 172 200 191 189 184 177 190 200 186 137 161 109 92 110 118 128 102 93 97 95 97 103 110 98 82 65 71 62 123 237 208 218 182 148 140 155 159 193 229 272 67 88 105 98 103 96 96 117 112 204 130 120 87 95 102 113 109 111 104 93 93 104 87 90 86
190 187 191 193 194 194 189 196 195 192 194 190 191 183 183 180 183 176 174 189 178 195 191 198 197 190 197 211 151 141 183 138 162 154 175 164 159 157 153 162 158 148 182 143 160 154 201 158 172 222 215 208 269 210 150 168 182 202 231 281 98 159 130 114 120 114 119 129 89 78 79 94 116 132 125 101 105 113 102 95 105 94 85 100 116
190 193 195 191 196 196 191 193 193 193 194 198 198 184 180 188 191 191 179 187 191 195 199 196 197 200 202 213 155 166 189 151 167 174 191 166 170 178 177 186 161 162 205 151 169 166 194 169 191 216 210 196 208 207 250 208 206 226 231 154 202 200 154 137 147 146 145 123 110 118 122 145 157 128 114 120 128 129 115 121 123 105 110 110 109
190 200 193 197 192 199 194 194 193 193 195 201 200 189 198 198 195 195 191 187 190 202 202 199 204 193 211 197 189 181 189 171 173 180 189 171 183 182 183 175 165 177 195 185 164 176 195 188 198 205 201 178 207 220 252 291 290 256 280 177 240 220 191 154 159 166 168 127 132 167 170 191 147 154 136 148 148 149 136 115 132 120 118 115 118
191 195 196 197 190 195 197 196 194 195 195 199 204 200 200 202 199 181 194 190 193 201 213 207 198 197 208 203 209 191 193 184 179 181 184 184 190 185 188 173 178 185 193 187 174 189 198 194 193 184 189 191 204 211 207 210 272 260 249 236 239 237 224 207 180 164 173 139 142 196 211 194 176 148 156 162 157 138 148 140 146 158 134 136 143
199 193 198 197 192 198 197 200 198 196 195 196 204 207 204 203 202 196 200 184 203 203 210 209 205 207 203 212 215 207 200 191 184 186 186 188 185 191 189 186 186 186 189 194 185 190 194 193 186 194 197 199 189 206 203 220 225 228 245 231 231 235 236 231 214 175 184 165 166 167 227 155 152 163 178 182 179 170 164 162 167 151 145 168 147
204 197 198 201 195 198 202 201 203 202 200 199 203 206 208 208 207 203 204 187 207 211 212 211 216 206 209 209 211 225 206 201 187 193 190 190 187 187 198 196 194 191 192 200 192 194 196 193 197 195 196 203 203 196 201 203 230 225 226 227 229 227 220 234 219 215 207 196 179 145 202 223 200 186 193 191 180 192 195 179 181 196 175 167 151
202 202 199 200 197 192 203 204 202 197 204 206 204 208 209 212 210 203 198 206 209 208 213 212 216 215 214 202 213 222 226 215 206 205 195 193 190 195 204 199 200 196 197 201 194 200 199 200 196 201 201 206 210 185 212 215 211 234 230 226 212 224 216 222 219 219 220 209 203 157 178 220 216 199 216 219 230 234 173 182 177 175 195 181 169
204 202 200 198 198 202 202 204 203 195 202 204 205 215 212 214 215 218 204 200 207 213 211 214 213 221 218 202 212 213 227 217 221 211 215 200 193 200 206 204 204 196 198 201 191 202 202 206 195 214 213 210 211 201 212 226 215 212 213 222 227 224 222 222 226 208 213 216 219 177 180 190 232 220 235 255 239 215 211 217 202 178 186 202 194
208 202 198 195 199 196 201 204 207 200 203 208 202 208 218 217 215 217 218 186 198 207 215 213 213 218 210 214 215 216 213 226 217 216 216 217 195 192 214 211 209 198 199 196 195 199 204 196 191 192 205 216 218 215 210 226 224 220 207 208 211 213 221 227 224 226 226 228 243 192 174 183 205 221 243 254 261 236 197 199 230 223 215 215 216
203 200 198 196 194 193 192 201 205 207 204 213 213 208 209 216 221 220 219 210 204 202 209 217 220 219 193 198 215 218 220 220 222 211 218 221 213 212 214 216 213 197 198 188 194 200 207 202 201 198 207 212 213 218 210 221 226 216 209 207 210 212 210 209 216 209 205 219 219 331 318 189 196 205 219 237 253 229 227 199 213 211 237 213 210
199 198 198 197 193 192 189 198 195 208 201 213 212 215 211 211 214 221 220 214 214 211 204 209 218 228 212 206 206 215 218 224 224 221 215 224 222 231 220 210 210 193 192 189 196 205 214 212 205 211 209 215 221 217 219 224 223 221 216 202 210 208 201 205 203 223 220 198 218 282 264 308 273 211 196 217 232 245 232 267 228 205 215 223 214
201 197 195 194 196 193 189 199 190 204 207 211 214 217 216 214 214 216 223 219 219 219 211 204 203 214 218 220 216 211 202 216 225 223 222 215 217 216 205 212 197 184 196 190 200 207 209 213 214 213 213 214 218 220 215 227 228 224 218 212 218 212 216 213 203 218 223 220 219 216 218 250 280 271 288 219 223 220 228 251 240 213 214 223 225
201 199 194 192 198 194 190 198 197 198 207 209 214 217 220 218 218 215 218 220 218 221 222 217 213 211 205 207 213 208 195 198 201 207 218 214 211 212 212 207 191 193 196 198 198 204 206 208 214 213 222 218 213 220 218 222 222 218 210 220 243 239 238 234 224 221 200 222 230 221 240 252 323 314 287 278 304 300 206 218 252 232 227 228 232
201 203 199 193 196 194 193 198 200 200 204 211 208 210 217 218 216 217 207 219 222 227 229 227 223 221 222 218 212 207 210 212 206 203 207 212 214 213 218 213 191 191 196 197 205 206 211 209 213 206 212 222 222 217 215 208 203 200 191 199 218 245 268 292 272 281 260 243 240 240 233 226 169 261 288 286 286 279 313 221 230 244 233 240 226
198 200 202 200 196 198 196 195 202 201 201 203 210 214 220 225 228 228 224 223 226 226 226 226 223 219 219 225 231 227 210 222 219 208 210 211 214 218 223 222 194 197 198 200 209 209 211 208 213 208 208 220 234 229 222 184 152 158 180 187 209 251 288 273 277 258 247 258 264 270 279 253 251 182 231 277 275 290 274 294 275 234 237 231 222
196 198 200 200 200 200 200 197 199 202 202 203 203 207 207 212 215 218 223 219 222 224 224 231 229 223 215 213 219 224 215 215 224 218 217 211 210 215 229 224 202 196 200 203 207 206 205 204 209 215 210 196 173 101 87 102 88 123 227 250 232 240 244 256 246 242 250 234 238 240 244 242 232 242 232 200 268 275 267 263 256 254 244 226 225
195 196 197 199 201 199 195 201 197 198 200 201 203 202 207 212 219 221 223 224 226 225 226 227 229 229 215 215 214 223 226 220 213 214 220 212 217 227 227 216 190 193 201 212 209 209 207 209 207 202 205 197 197 158 126 116 113 260 211 257 260 221 231 227 243 243 231 228 218 216 220 236 238 243 236 200 228 232 259 263 261 258 256 233 225
196 197 198 198 200 202 201 201 197 197 203 204 202 204 205 208 210 213 218 218 216 218 226 233 237 242 231 222 217 218 223 218 202 200 206 208 215 224 218 220 193 199 208 210 203 206 201 196 189 192 197 196 215 169 153 131 222 230 245 259 252 233 221 213 223 234 230 226 215 214 211 220 227 219 194 224 222 234 237 241 250 253 250 254 232
197 197 200 199 200 203 206 203 200 200 202 204 204 205 207 209 215 224 224 231 225 212 213 213 210 219 225 227 216 214 212 212 209 209 211 215 221 226 223 211 208 202 202 204 203 197 188 187 187 195 181 203 216 158 176 189 220 176 185 3 274 294 213 217 223 231 215 212 201 214 215 214 225 198 189 208 225 234 236 234 242 245 251 250 260
193 194 195 198 198 202 203 204 203 202 202 200 204 207 206 206 214 231 236 242 273 347 350 275 215 211 217 212 207 206 208 216 218 217 219 228 223 226 219 211 217 208 198 196 194 193 181 185 184 207 198 181 207 213 190 195 212 149 225 208 276 61 298 253 220 221 204 204 201 216 196 221 212 200 187 224 224 211 236 234 239 240 244 247 251
190 193 189 192 195 198 200 201 201 199 201 196 195 200 203 213 224 224 231 234 77 261 267 262 256 240 236 214 215 206 214 215 217 214 198 215 222 221 221 219 201 196 198 206 208 210 195 188 180 202 206 217 222 217 190 198 211 216 212 112 74 246 235 273 306 274 158 201 216 214 217 225 222 220 211 229 216 231 236 234 237 231 235 241 244
190 194 192 191 192 193 195 195 199 198 197 194 191 190 197 209 209 215 216 226 234 229 227 229 233 238 242 242 239 232 235 239 229 222 214 215 218 219 222 220 206 206 200 216 219 214 203 191 200 202 215 219 231 215 187 190 209 223 241 248 241 265 262 205 194 278 109 226 210 215 222 216 220 227 226 229 216 219 223 233 235 239 239 235 234
189 172 179 190 194 195 193 192 193 195 195 192 185 183 190 204 216 217 220 223 230 234 235 234 233 234 232 230 225 218 213 223 224 216 213 211 217 214 214 212 213 210 205 208 218 218 211 200 195 203 211 217 220 235 214 181 187 235 230 241 254 269 117 282 256 288 275 151 276 233 230 219 220 227 236 234 231 238 231 227 237 237 238 235 232
152 141 167 185 193 192 187 188 188 190 187 187 187 187 189 198 210 218 223 229 233 244 239 234 234 249 250 248 253 252 233 217 213 199 199 195 202 213 216 220 213 209 206 210 215 217 213 201 199 204 209 209 211 224 230 195 185 220 200 233 243 255 252 194 263 266 283 291 273 235 230 225 189 220 224 235 234 232 237 228 227 230 233 232 228
150 174 182 183 187 190 187 185 187 185 181 181 182 183 187 198 206 213 220 228 238 243 246 242 238 232 243 247 246 242 262 281 281 281 254 224 200 209 207 213 209 215 210 213 211 217 216 207 193 194 202 216 215 223 233 228 200 228 160 218 225 236 239 247 222 144 242 266 267 261 267 171 221 232 227 225 233 238 235 236 234 233 236 237 228
151 161 161 164 168 173 178 179 178 176 170 172 179 179 180 199 210 211 217 221 227 242 251 249 240 242 248 251 258 259 241 228 234 247 250 242 246 222 215 217 220 218 212 217 217 218 215 210 208 205 207 217 216 220 226 230 216 210 210 197 203 231 243 253 239 233 242 228 260 264 266 266 260 235 207 218 219 229 232 232 234 234 234 236 231
142 152 148 153 154 162 169 171 171 167 164 165 170 176 179 195 209 212 215 223 225 229 235 242 245 257 253 254 250 255 264 263 256 232 236 232 235 237 243 240 235 231 222 220 221 218 217 216 209 206 210 211 217 211 221 233 234 229 224 218 219 212 219 229 228 220 228 240 247 254 258 239 249 268 246 211 215 219 221 225 230 231 229 231 233